Weather History for Port Heiden, AK

Change the Weather History Date:

Monday, November 25, 2013

  Actual Average Record
Temperature  
Mean Temperature 38 °F -  
Max Temperature 44 °F 35 °F 46 °F (2002)
Min Temperature 33 °F 26 °F 8 °F (2011)
Degree Days  
Heating Degree Days 26    
Moisture  
Dew Point 30 °F    
Average Humidity 72    
Maximum Humidity 81    
Minimum Humidity 61    
Precipitation  
Precipitation 0.00 in - - ()
Sea Level Pressure  
Sea Level Pressure 29.65 in    
Wind  
Wind Speed 10 mph (North)    
Max Wind Speed 23 mph    
Max Gust Speed 28 mph    
Visibility 10 miles    
Events      
Averages and records for this station are not official NWS values.
T = Trace of Precipitation, MM = Missing Value Source: NWS Daily Summary

Daily Weather History Graph

Daily Weather History Graph

Search for Another Location

Airport:

Trip Planner

Search our weather history database for the weather conditions in past years. The results will help you decide how hot, cold, wet, or windy it might be!

Date:

Astronomy

Nov. 25, 2013 Rise Set
Actual Time 9:37 AM AKST 5:05 PM AKST
Civil Twilight 8:51 AM AKST 5:51 PM AKST
Nautical Twilight 8:02 AM AKST 6:40 PM AKST
Astronomical Twilight 7:16 AM AKST 7:25 PM AKST
Moon 12:27 AM AKST (11/25) 2:08 PM AKST (11/25)
Length of Visible Light 9h 00m
Length of Day
7h 28m
Waning Gibbous, 49% of the Moon is Illuminated
Nov 25
Waning Gibbous
Dec 2
New
Dec 9
First Quarter
Dec 17
Full
Dec 25
Last Quarter

Hourly Weather History & Observations

Time (AKST) Temp. Windchill Dew Point Humidity Pressure Visibility Wind Dir Wind Speed Gust Speed Precip Events Conditions
12:16 AM 39.2 °F 28.7 °F 30.2 °F 70% 29.56 in 10.0 mi SSE 23.0 mph 27.6 mph N/A   Overcast
12:36 AM 39.2 °F 29.3 °F 30.2 °F 70% 29.56 in 10.0 mi SSE 20.7 mph - N/A   Overcast
12:56 AM 39.2 °F 28.7 °F 30.2 °F 70% 29.56 in 10.0 mi SSE 23.0 mph - N/A   Overcast
1:16 AM 39.2 °F 29.6 °F 30.2 °F 70% 29.56 in 10.0 mi SE 19.6 mph - N/A   Overcast
1:36 AM 39.2 °F 29.3 °F 30.2 °F 70% 29.55 in 10.0 mi SE 20.7 mph - N/A   Overcast
1:56 AM 39.2 °F 29.3 °F 30.2 °F 70% 29.55 in 10.0 mi SE 20.7 mph 24.2 mph N/A   Overcast
2:16 AM 39.2 °F 29.6 °F 30.2 °F 70% 29.55 in 10.0 mi SE 19.6 mph - N/A   Overcast
2:36 AM 39.2 °F 30.8 °F 30.2 °F 70% 29.55 in 10.0 mi SE 15.0 mph - N/A   Scattered Clouds
2:56 AM 39.2 °F 33.6 °F 30.2 °F 70% 29.56 in 10.0 mi East 8.1 mph - N/A   Mostly Cloudy
3:16 AM 39.2 °F - 30.2 °F 70% 29.57 in 10.0 mi Calm Calm - N/A   Overcast
3:36 AM 41.0 °F 35.2 °F 30.2 °F 65% 29.57 in 10.0 mi ESE 9.2 mph - N/A   Overcast
3:56 AM 39.2 °F 35.0 °F 30.2 °F 70% 29.57 in 10.0 mi ESE 5.8 mph - N/A   Overcast
4:16 AM 42.8 °F 35.8 °F 30.2 °F 61% 29.57 in 10.0 mi SSE 13.8 mph 20.7 mph N/A   Overcast
4:36 AM 42.8 °F 35.4 °F 30.2 °F 61% 29.57 in 10.0 mi SE 15.0 mph 24.2 mph N/A   Overcast
4:56 AM 42.8 °F 39.3 °F 30.2 °F 61% 29.58 in 10.0 mi East 5.8 mph - N/A   Overcast
5:16 AM 41.0 °F 35.2 °F 30.2 °F 65% 29.57 in 10.0 mi ESE 9.2 mph - N/A   Overcast
5:36 AM 42.8 °F 35.8 °F 30.2 °F 61% 29.57 in 10.0 mi East 13.8 mph - N/A   Overcast
5:56 AM 39.2 °F 32.5 °F 28.4 °F 65% 29.58 in 10.0 mi ENE 10.4 mph - N/A   Overcast
6:16 AM 41.0 °F 35.8 °F 30.2 °F 65% 29.58 in 10.0 mi ENE 8.1 mph - N/A   Overcast
6:36 AM 41.0 °F - 28.4 °F 61% 29.59 in 10.0 mi Calm Calm - N/A   Overcast
6:56 AM 42.8 °F - 30.2 °F 61% 29.59 in 10.0 mi Calm Calm - N/A   Overcast
7:16 AM 42.8 °F - 30.2 °F 61% 29.59 in 10.0 mi Calm Calm - N/A   Overcast
7:36 AM 39.2 °F - 30.2 °F 70% 29.59 in 10.0 mi Calm Calm - N/A   Overcast
7:56 AM 41.0 °F - 30.2 °F 65% 29.59 in 10.0 mi Calm Calm - N/A   Overcast
8:16 AM 39.2 °F 34.2 °F 30.2 °F 70% 29.60 in 10.0 mi North 6.9 mph - N/A   Overcast
8:36 AM 37.4 °F 33.8 °F 30.2 °F 75% 29.60 in 10.0 mi WNW 4.6 mph - N/A   Overcast
8:56 AM 37.4 °F 32.8 °F 30.2 °F 75% 29.60 in 10.0 mi NW 5.8 mph - N/A   Overcast
9:16 AM 37.4 °F 32.8 °F 30.2 °F 75% 29.61 in 10.0 mi NNW 5.8 mph - N/A   Overcast
9:36 AM 37.4 °F 33.8 °F 30.2 °F 75% 29.62 in 10.0 mi NW 4.6 mph - N/A   Overcast
9:56 AM 39.2 °F 35.0 °F 30.2 °F 70% 29.62 in 10.0 mi NNW 5.8 mph - N/A   Overcast
10:16 AM 37.4 °F - 30.2 °F 75% 29.63 in 10.0 mi Calm Calm - N/A   Overcast
10:36 AM 37.4 °F 34.9 °F 30.2 °F 75% 29.63 in 10.0 mi NW 3.5 mph - N/A   Overcast
10:56 AM 39.2 °F 35.9 °F 30.2 °F 70% 29.64 in 10.0 mi NNW 4.6 mph - N/A   Overcast
11:16 AM 39.2 °F 35.9 °F 30.2 °F 70% 29.64 in 10.0 mi NW 4.6 mph - N/A   Overcast
11:36 AM 39.2 °F 37.0 °F 30.2 °F 70% 29.64 in 10.0 mi West 3.5 mph - N/A   Overcast
11:56 AM 39.2 °F 35.9 °F 30.2 °F 70% 29.65 in 10.0 mi WNW 4.6 mph - N/A   Mostly Cloudy
12:16 PM 39.2 °F 35.9 °F 32.0 °F 75% 29.65 in 10.0 mi WSW 4.6 mph - N/A   Overcast
12:36 PM 39.2 °F 35.9 °F 32.0 °F 75% 29.65 in 10.0 mi NW 4.6 mph - N/A   Mostly Cloudy
12:56 PM 39.2 °F 35.0 °F 33.8 °F 81% 29.65 in 10.0 mi NNW 5.8 mph - N/A   Overcast
1:16 PM 39.2 °F 33.6 °F 33.8 °F 81% 29.65 in 10.0 mi NNW 8.1 mph - N/A   Mostly Cloudy
1:36 PM 39.2 °F 34.2 °F 32.0 °F 75% 29.65 in 10.0 mi NNW 6.9 mph - N/A   Partly Cloudy
1:56 PM 39.2 °F 35.0 °F 32.0 °F 75% 29.65 in 10.0 mi NNW 5.8 mph - N/A   Clear
2:16 PM 39.2 °F 34.2 °F 32.0 °F 75% 29.65 in 10.0 mi NNW 6.9 mph - N/A   Partly Cloudy
2:36 PM 39.2 °F 34.2 °F 32.0 °F 75% 29.65 in 10.0 mi NW 6.9 mph - N/A   Mostly Cloudy
2:56 PM 39.2 °F 33.6 °F 32.0 °F 75% 29.65 in 10.0 mi NW 8.1 mph - N/A   Overcast
3:16 PM 39.2 °F 34.2 °F 32.0 °F 75% 29.66 in 10.0 mi NW 6.9 mph - N/A   Mostly Cloudy
3:36 PM 39.2 °F 34.2 °F 32.0 °F 75% 29.66 in 10.0 mi NW 6.9 mph - N/A   Scattered Clouds
3:56 PM 39.2 °F 34.2 °F 32.0 °F 75% 29.66 in 10.0 mi WNW 6.9 mph - N/A   Overcast
4:16 PM 39.2 °F 35.0 °F 32.0 °F 75% 29.67 in 10.0 mi West 5.8 mph - N/A   Overcast
4:36 PM 39.2 °F 34.2 °F 32.0 °F 75% 29.68 in 10.0 mi WNW 6.9 mph - N/A   Overcast
4:56 PM 37.4 °F 32.8 °F 30.2 °F 75% 29.68 in 10.0 mi WNW 5.8 mph - N/A   Overcast
5:16 PM 37.4 °F 32.8 °F 30.2 °F 75% 29.69 in 10.0 mi WNW 5.8 mph - N/A   Overcast
5:36 PM 37.4 °F 32.8 °F 30.2 °F 75% 29.69 in 10.0 mi WNW 5.8 mph - N/A   Overcast
5:56 PM 37.4 °F 32.8 °F 30.2 °F 75% 29.69 in 10.0 mi NW 5.8 mph - N/A   Overcast
6:16 PM 37.4 °F 33.8 °F 30.2 °F 75% 29.70 in 10.0 mi WNW 4.6 mph - N/A   Mostly Cloudy
6:36 PM 35.6 °F - 30.2 °F 81% 29.71 in 10.0 mi Calm Calm - N/A   Overcast
6:56 PM 37.4 °F 33.8 °F 30.2 °F 75% 29.72 in 10.0 mi SE 4.6 mph - N/A   Overcast
7:16 PM 35.6 °F 32.8 °F 28.4 °F 75% 29.72 in 10.0 mi SE 3.5 mph - N/A   Overcast
7:36 PM 33.8 °F 29.6 °F 26.6 °F 75% 29.73 in 10.0 mi SE 4.6 mph - N/A   Mostly Cloudy
7:56 PM 33.8 °F - 26.6 °F 75% 29.73 in 10.0 mi Calm Calm - N/A   Scattered Clouds
8:16 PM 33.8 °F 30.8 °F 28.4 °F 81% 29.74 in 10.0 mi SE 3.5 mph - N/A   Partly Cloudy
8:36 PM 33.8 °F - 28.4 °F 81% 29.74 in 10.0 mi Calm Calm - N/A   Scattered Clouds
8:56 PM 35.6 °F - 30.2 °F 81% 29.74 in 10.0 mi Calm Calm - N/A   Partly Cloudy
9:16 PM 37.4 °F 32.8 °F 30.2 °F 75% 29.75 in 10.0 mi NNE 5.8 mph - N/A   Clear
9:36 PM 35.6 °F 32.8 °F 28.4 °F 75% 29.75 in 10.0 mi North 3.5 mph - N/A   Clear
9:56 PM 35.6 °F 31.7 °F 30.2 °F 81% 29.75 in 10.0 mi ESE 4.6 mph - N/A   Partly Cloudy
10:16 PM 33.8 °F 29.6 °F 28.4 °F 81% 29.75 in 10.0 mi East 4.6 mph - N/A   Mostly Cloudy
10:36 PM 35.6 °F 30.7 °F 28.4 °F 75% 29.76 in 10.0 mi ENE 5.8 mph - N/A   Overcast
10:56 PM 35.6 °F - 28.4 °F 75% 29.77 in 10.0 mi Calm Calm - N/A   Mostly Cloudy
11:16 PM 35.6 °F 32.8 °F 28.4 °F 75% 29.77 in 10.0 mi ENE 3.5 mph - N/A   Partly Cloudy
11:36 PM 35.6 °F - 28.4 °F 75% 29.78 in 10.0 mi Calm Calm - N/A   Mostly Cloudy
11:56 PM 35.6 °F - 28.4 °F 75% 29.78 in 10.0 mi Calm Calm - N/A   Mostly Cloudy